Theta_e
306 307 308 308 306 306 307 308 308 305 300 299 299 303 308 306 313 313 312 312 313 309 313 313 314 314 313 313 314 317 317 316 316 316 317 316 318 318 319 320 322 322 321 334 339
304 304 306 307 305 305 306 307 307 303 299 298 298 304 309 309 314 312 311 310 309 311 313 313 313 314 315 314 314 315 317 317 313 313 313 314 313 314 315 318 319 320 321 333 336
303 302 302 301 302 305 306 307 306 300 298 298 299 306 309 311 315 312 309 309 308 311 312 313 314 315 317 316 315 315 314 314 313 314 313 313 314 313 312 312 315 317 319 324 335
303 302 300 299 299 300 303 304 300 299 299 299 302 309 307 312 318 311 309 309 309 311 312 313 315 317 317 317 315 316 315 315 315 314 314 314 314 314 313 313 313 311 312 321 322
303 302 301 301 300 300 300 299 300 300 299 300 305 309 313 314 313 311 310 309 311 311 312 313 314 315 317 315 315 316 315 315 315 315 314 314 315 314 314 313 312 312 312 313 320
304 303 303 302 301 300 299 298 298 299 300 304 307 311 314 315 310 311 310 310 310 311 312 313 314 314 316 316 316 315 315 315 315 316 315 315 315 314 313 313 313 313 312 310 313
304 305 302 303 301 299 299 298 298 299 303 306 308 313 314 312 311 310 310 311 311 311 312 312 313 315 314 316 315 315 315 316 317 316 315 314 315 315 315 314 313 312 312 312 310
305 305 304 301 301 299 298 298 299 301 305 306 309 313 314 309 310 311 311 311 311 312 312 312 313 313 315 314 316 316 317 317 316 316 316 315 317 316 315 313 313 313 316 319 321
306 305 304 300 300 299 298 299 301 305 306 307 313 312 313 308 310 310 310 311 312 313 313 313 313 315 315 317 319 317 317 316 317 315 315 315 317 315 313 313 314 314 316 316 320
306 306 304 300 299 298 298 301 304 308 311 310 310 312 309 310 309 310 311 311 312 313 315 315 316 317 317 316 318 317 317 317 318 317 315 316 315 315 315 313 311 312 314 315 318
306 305 304 300 299 298 300 306 307 309 307 309 309 309 309 309 309 311 311 311 312 314 314 315 315 318 313 314 314 314 317 318 317 316 315 317 318 316 313 311 311 310 312 313 316
306 305 304 300 299 299 306 307 305 305 308 306 307 308 308 308 312 311 310 313 313 314 312 314 317 312 311 313 315 317 317 317 316 316 316 317 314 313 311 311 311 310 309 312 313
306 305 303 300 298 303 305 305 304 305 310 308 308 308 309 309 311 312 311 312 313 313 312 312 313 310 310 313 316 316 315 315 316 317 316 316 316 314 309 310 308 307 307 310 311
305 305 302 299 302 302 301 300 304 305 316 309 309 308 308 309 312 309 310 312 313 312 312 312 310 310 311 313 312 315 315 314 315 319 323 315 321 313 313 310 309 306 306 309 308
304 305 301 299 302 303 302 298 303 306 318 308 307 306 307 310 310 311 309 311 314 313 311 312 310 310 311 311 310 313 313 314 318 321 320 316 319 315 311 311 308 308 305 309 308
305 305 300 300 301 302 298 303 305 312 313 308 307 309 309 309 310 309 310 309 310 311 311 310 309 309 310 309 310 312 313 316 317 320 324 312 315 315 312 310 308 308 308 310 310
305 304 300 301 304 299 301 305 311 311 304 309 309 308 309 310 310 309 311 312 314 314 315 312 311 309 309 311 313 312 314 318 323 319 317 312 314 313 311 309 309 309 308 309 311
304 302 300 302 300 298 302 305 303 312 307 306 307 308 309 309 309 309 310 312 310 310 311 312 313 310 309 310 311 312 313 314 318 318 316 311 312 312 309 309 307 306 307 306 306
303 302 301 300 299 299 305 308 311 311 305 307 307 308 311 309 309 309 309 310 309 309 313 312 312 309 309 308 310 312 313 311 315 310 314 313 313 309 309 307 306 305 304 303 303
302 302 302 301 298 301 305 305 305 301 305 306 308 309 312 310 308 309 310 308 309 309 309 311 310 309 309 309 310 311 310 313 311 313 319 313 311 310 309 308 305 303 301 301 300
302 303 302 299 298 303 304 304 302 299 304 307 308 306 306 309 310 309 308 308 307 308 308 310 309 310 309 310 310 312 313 312 310 312 316 317 310 307 307 304 302 301 301 300 299
303 302 299 299 302 300 303 299 298 300 303 305 306 306 306 306 307 309 310 308 306 307 309 309 310 308 310 306 307 310 312 312 311 313 310 312 311 307 303 301 300 300 300 300 299
301 300 299 299 303 301 298 297 298 301 303 304 305 306 305 306 307 308 308 306 307 308 309 309 306 303 308 310 308 311 311 311 311 309 312 314 312 306 302 300 300 299 299 299 298
299 301 299 300 301 303 300 300 298 300 302 303 304 304 305 306 306 307 307 306 305 307 306 307 308 308 309 308 307 309 309 310 311 309 311 309 309 306 302 300 299 299 299 298 298
299 301 300 299 299 300 300 301 301 299 300 302 303 304 305 305 305 305 306 306 304 307 306 307 308 306 306 307 306 305 305 306 308 310 309 309 309 307 303 300 299 299 299 298 297
298 299 300 300 300 299 301 301 300 301 299 301 302 303 303 305 305 305 305 305 305 306 306 305 306 302 298 304 305 303 302 303 304 306 308 309 307 306 302 299 298 299 298 297 297
299 299 302 302 301 300 300 301 300 301 301 302 302 302 302 304 303 302 302 303 304 305 305 303 299 297 298 297 295 294 296 300 304 304 308 309 307 305 302 300 299 298 298 297 297
Wind_Speed
7 8 9 10 11 11 12 12 13 14 15 15 16 14 15 13 8 8 10 8 12 14 16 14 11 13 5 0 3 3 3 4 6 7 10 18 13 14 11 7 3 10 12 7 11
7 8 9 10 11 11 12 13 14 14 14 14 14 13 13 10 4 12 7 11 11 12 15 14 12 13 0 1 1 2 3 2 7 9 10 13 14 16 15 15 12 9 11 11 14
7 9 10 10 11 12 13 14 15 15 14 14 12 11 10 7 4 5 10 9 10 11 11 11 9 5 4 1 3 5 3 11 8 10 10 12 13 13 15 13 13 15 15 5 10
7 9 9 10 10 11 13 14 14 14 14 13 9 9 6 3 2 4 10 7 9 13 11 11 9 5 3 5 5 5 5 10 9 10 11 12 14 15 15 15 17 21 22 8 7
7 8 9 10 11 12 13 14 15 14 14 10 7 8 4 3 5 5 9 8 8 10 12 10 10 7 7 6 9 7 8 12 14 14 13 13 14 14 17 16 16 19 22 15 9
7 8 9 10 11 12 13 14 14 14 11 6 5 6 4 1 2 5 6 7 8 9 8 11 7 6 5 6 4 10 12 14 10 11 10 12 9 9 14 17 17 17 16 17 17
8 9 10 10 12 12 14 14 13 12 5 4 3 4 4 4 1 4 3 5 5 7 7 7 7 6 8 7 11 9 7 13 9 11 8 7 6 4 14 17 11 11 14 16 13
9 10 11 11 12 13 14 14 13 5 2 2 2 3 2 2 0 3 3 2 3 4 3 4 4 2 2 6 5 4 4 8 13 11 7 10 7 7 14 13 12 15 13 14 15
10 10 11 12 12 13 14 13 4 1 2 0 2 2 4 0 1 3 2 4 5 1 1 1 2 3 3 3 1 2 6 13 14 9 8 6 11 12 17 11 12 13 15 15 13
12 11 11 11 11 13 12 4 1 2 1 3 4 2 4 1 3 3 2 2 3 1 3 3 4 3 2 5 4 9 6 8 13 10 6 7 10 7 12 13 14 13 11 14 10
12 10 10 10 10 12 8 3 3 3 5 3 3 2 2 5 1 4 2 4 4 4 3 4 2 2 5 5 3 8 7 9 12 7 4 11 7 9 11 12 13 12 12 11 8
11 10 9 9 10 7 5 2 3 2 2 1 2 2 1 3 2 3 2 4 3 7 0 3 3 6 3 5 6 3 7 6 10 11 2 6 6 8 12 13 14 12 12 11 12
11 8 8 8 8 4 5 3 1 3 4 3 1 1 2 2 3 4 5 2 6 7 4 4 4 3 5 7 4 5 3 4 6 5 1 6 1 5 5 8 14 15 13 11 12
11 8 7 5 2 0 2 1 1 2 1 4 3 2 2 1 1 2 3 1 2 5 6 6 3 2 6 8 6 5 1 6 5 2 2 3 2 3 6 8 10 11 15 15 15
11 8 5 3 1 1 2 0 1 2 2 1 3 1 1 2 1 2 1 2 4 5 3 1 3 5 4 3 5 7 9 11 1 2 3 2 3 3 8 8 15 10 12 10 11
12 9 5 1 2 4 2 2 1 3 4 2 2 3 4 3 4 1 3 3 1 4 6 11 1 2 4 9 8 10 10 6 4 3 2 5 0 3 9 9 11 13 12 9 11
14 10 7 4 0 4 4 2 3 3 2 3 3 4 2 2 3 0 1 2 2 3 2 4 8 3 1 8 4 8 8 1 2 2 1 6 5 2 8 9 8 11 14 14 12
15 11 7 3 4 5 2 2 2 1 4 0 2 3 2 1 2 1 2 2 3 4 3 3 2 1 4 2 3 4 4 2 2 3 3 7 4 4 2 5 6 8 9 9 8
17 10 3 5 6 4 0 1 4 4 5 7 2 3 2 2 1 2 1 5 4 5 4 4 2 4 1 2 3 4 4 4 4 2 1 2 3 3 5 7 9 10 9 8 8
16 8 5 8 8 3 2 4 2 2 2 4 4 5 4 3 4 4 3 3 1 1 3 2 4 2 2 4 3 1 3 1 2 3 2 1 3 3 4 5 8 8 8 8 8
12 3 4 11 8 3 3 5 3 3 2 3 3 4 3 5 3 2 4 4 0 3 3 3 2 1 4 4 3 1 1 2 1 1 2 0 2 4 7 5 6 6 7 7 6
8 3 4 12 3 2 3 5 3 4 3 2 2 2 3 5 5 4 1 4 4 2 2 4 2 3 3 5 1 1 2 3 1 1 1 2 2 6 8 7 6 6 4 4 5
5 3 4 1 4 3 2 2 2 5 4 4 4 5 4 5 2 4 5 3 4 3 2 3 1 3 2 2 4 2 2 3 5 1 3 0 2 6 7 7 6 5 5 4 5
4 4 2 2 1 3 5 4 4 4 2 4 3 3 3 3 2 3 2 4 2 1 1 1 1 3 2 2 2 2 1 2 4 2 2 4 6 7 8 8 7 6 5 5 5
2 4 5 6 8 6 9 8 6 6 3 2 4 7 6 5 6 5 5 5 4 4 3 2 2 2 7 8 3 5 7 7 6 7 3 4 6 12 9 9 8 6 6 5 6
6 5 2 4 7 15 10 9 12 6 8 5 5 11 8 5 6 7 6 5 5 6 5 3 2 2 4 6 5 6 8 9 10 9 8 7 8 9 9 9 8 8 6 5 6
7 6 5 9 8 11 7 7 14 11 8 6 11 6 9 7 7 6 6 5 3 7 6 5 4 3 4 4 4 7 8 14 6 6 8 7 6 9 8 11 10 9 8 7 6
Wind_Direction
357 356 354 353 353 353 352 352 350 350 351 350 350 354 356 358 21 41 43 349 335 350 3 348 2 345 267 137 305 312 284 290 307 325 351 354 359 339 330 306 356 309 304 101 87
344 343 344 344 345 348 347 346 345 345 347 347 347 351 353 6 15 55 2 351 358 5 355 354 349 337 209 70 209 275 264 263 15 355 359 336 342 331 334 324 318 302 275 71 84
337 339 339 339 341 344 344 343 342 341 342 342 344 349 353 13 263 47 351 354 2 5 341 334 311 296 311 238 46 344 252 341 334 345 332 317 311 315 307 300 300 295 298 2 127
329 332 337 339 339 340 339 338 337 336 336 336 341 349 3 3 49 8 348 359 7 359 357 2 356 4 321 0 36 312 296 330 323 333 324 303 300 286 274 276 287 293 297 299 319
323 327 330 335 335 335 335 333 332 332 332 334 340 353 3 217 65 355 355 346 358 356 14 359 28 351 10 352 339 255 324 332 317 308 297 288 285 287 290 287 272 278 285 292 272
317 325 322 326 331 332 330 328 328 328 329 336 344 5 287 186 99 345 345 356 3 1 11 23 14 342 296 315 326 347 318 299 291 280 268 268 289 298 280 280 276 284 274 278 281
310 319 319 319 325 327 327 325 323 324 325 341 350 349 265 79 34 343 350 341 354 1 352 29 9 354 344 324 357 298 300 291 215 351 323 31 276 254 1 337 311 258 268 282 264
299 308 318 316 319 324 326 323 319 314 311 321 6 317 39 145 46 1 335 314 338 359 11 4 8 322 287 284 258 268 244 355 345 354 340 345 297 18 346 330 329 334 357 5 353
285 302 313 315 317 324 327 325 331 347 291 210 339 279 108 53 254 346 338 336 336 1 46 37 314 280 219 335 358 80 317 334 329 355 331 359 316 330 322 346 351 356 353 343 338
271 291 306 311 318 325 333 341 334 66 12 267 264 229 165 74 335 306 268 313 287 281 209 223 217 267 211 22 349 316 328 310 323 325 343 306 293 321 330 12 359 353 358 328 329
257 280 300 307 318 330 342 308 214 194 231 340 28 318 89 341 191 182 347 285 235 229 288 158 299 65 16 353 322 303 282 308 315 319 323 360 16 28 6 2 360 351 345 333 339
247 272 295 303 320 348 355 322 45 353 265 203 275 253 42 348 249 145 1 289 226 279 324 194 247 66 312 276 310 302 306 309 299 333 106 343 17 353 9 351 356 4 342 344 1
240 264 290 303 326 27 58 66 40 5 259 136 196 308 78 326 358 85 7 48 280 295 273 282 358 19 320 301 326 316 199 258 243 309 95 332 91 7 340 347 359 2 348 6 10
231 251 280 304 339 237 70 320 22 3 6 141 184 114 187 234 161 37 53 38 223 308 333 274 75 315 318 294 17 311 125 321 319 316 323 28 295 24 356 342 355 353 1 2 3
221 233 257 257 339 249 172 289 19 269 318 70 127 122 131 280 3 136 66 190 284 320 320 299 360 343 298 41 351 260 328 296 92 285 236 357 289 9 5 346 331 336 349 350 14
215 219 222 237 191 206 155 118 325 47 249 117 120 162 204 178 147 150 222 194 306 287 232 263 80 272 321 307 262 278 281 240 219 220 141 284 90 28 8 338 325 332 342 351 11
203 206 193 189 34 191 141 222 40 178 2 199 184 198 240 130 158 297 270 171 314 343 225 228 205 133 257 302 122 356 320 340 265 338 4 345 52 62 355 341 336 358 3 358 20
192 191 190 183 189 162 132 58 165 175 207 160 155 162 241 132 122 135 241 226 155 325 299 314 285 349 15 51 333 310 327 80 307 341 319 45 12 343 58 128 97 74 29 20 2
176 157 166 205 178 164 174 128 221 198 164 159 135 195 6 185 278 176 151 354 37 35 305 345 93 138 67 351 349 351 57 355 300 34 337 105 107 165 41 52 56 49 41 27 24
150 158 163 194 173 162 84 255 234 297 91 181 184 172 170 229 197 157 134 54 68 27 331 52 296 73 120 203 215 209 332 276 281 347 331 138 102 110 86 41 58 46 50 35 26
143 161 183 171 152 74 198 230 247 218 233 175 198 150 217 149 196 171 125 150 199 153 262 331 116 244 214 36 31 315 67 309 245 145 291 224 142 97 106 82 87 77 58 53 26
139 147 162 154 130 188 196 193 303 170 185 238 299 241 198 163 178 198 223 99 131 289 254 62 37 277 33 119 151 314 344 281 275 239 162 266 196 124 124 124 120 103 85 95 109
124 109 156 206 186 206 176 244 263 171 191 191 212 210 201 177 176 194 144 68 106 245 328 141 77 314 292 156 194 231 123 285 278 265 237 232 199 137 135 134 127 122 107 82 64
122 135 134 218 286 209 146 199 217 241 273 181 186 144 155 199 204 145 148 136 151 242 99 344 93 247 266 34 18 302 288 242 280 292 278 234 151 177 178 158 149 153 137 96 83
140 183 179 175 220 205 173 166 155 173 216 262 206 213 176 189 183 196 179 118 190 172 212 231 194 228 286 293 280 264 273 278 254 259 244 329 186 191 186 168 166 160 130 113 85
143 150 171 153 144 176 189 204 176 164 153 212 181 201 208 177 175 196 164 156 175 167 202 167 150 96 284 265 249 265 251 254 251 246 260 269 281 168 164 147 147 153 158 129 114
164 155 131 165 146 165 209 189 191 146 207 183 180 172 205 201 80 70 56 68 119 162 198 150 139 111 263 332 321 305 228 219 206 200 199 206 219 149 159 161 165 163 160 146 124